Pagina principale
METAR-TAF:

METAR-TAF

Aeroporti :

Doylestown Airport

Doylestown, Pennsylvania, Stati Uniti

latitudine: 40-19-48N, longitudine: 075-07-21W, altezza: 120 m

Osservazione

Il bollettino è stato emesso 7 minuti fa, alle 00:54 UTC
Vento calmo
Temperature 8°C
Umidità 71%
Pressione 1019 hPa
Visibilità: 16.1 km
Cielo sereno

METAR: KDYL 170054Z AUTO 00000KT 10SM CLR 08/03 A3008 RMK AO2 SLP190 T00780033 $

Ora: 21:01 (01:01 UTC)


TAF: mancante

Osservazioni e previsioni meteorologiche di più di 4000 aeroporti (messaggi METAR e TAF).

Le stazioni disponibili sono rappresentate dai dischi gialli e rossi sulla carta.

Puntare il mouse per vedere il nome della stazione.

Clicca sopra per visualizzare le osservazioni e previsioni meteorologiche.

Per cambiare la mappa : fare clic sui pulsanti verdi con una croce nera per ingrandire, il pulsante verde con un trattino per diminuire, o sulla freccia verde per le mappe adiacenti.


METAR-TAF: